View from above orbital plane
|
View from above satellite
|
Ground track
|
The orbit data is extracted from the following two-line orbital elements,
1 27845U 03031F 21023.55932488 .00000081 00000-0 56211-4 0 9993
2 27845 98.6781 35.1773 0009441 154.8789 205.2849 14.22329578911276
Epoch (UTC): | 23 January 2021 13:25:25 |
Eccentricity: | 0.0009441 |
inclination: | 98.6781° |
perigee height: | 810 km |
apogee height: | 824 km |
right ascension of ascending node: | 35.1773° |
argument of perigee: | 154.8789° |
revolutions per day: | 14.22329578 |
mean anomaly at epoch: | 205.2849° |
orbit number at epoch: | 91127 |
The dashed part of the orbit path shows where the satellite is in the earth's shadow,
|
|